Voltar ao catálogo

NOAA 16 DEB

AtivoSSO
NORAD 42428·DEBRIS·🇺🇸 United States

Lançado Sep 21, 2000 de Vandenberg Space Force Base

Loading…

Próximas Passagens (próximas 24 horas)

TLE

EnvelhecendoSource: Space-Track

Época: Sep 4, 2026, 05:38 UTC

1 42428U 00055TY  26247.23527067  .00000840  00000-0  35178-3 0  9992
2 42428  98.9786  33.0480 0023611   4.1353 356.0018 14.28698727502077

Acompanhe NOAA 16 DEB em tempo real com AllMySat

Download on the App Store